This is the latest recevied weather packets stored in our database for station/object KB9ZI. If no packets are shown the sender has not sent any weather packets the latest 10 day(s).
| Time | Temp. | Humidity | Pressure | Rain* | Wind** | Luminosity | Snow |
|---|---|---|---|---|---|---|---|
| 1778177590 | 13.33° C | 36% | 1011.4 hPa | 0 mm | - | - | - |
| 1778177340 | 13.33° C | 37% | 1011.4 hPa | 0 mm | - | - | - |
| 1778177222 | 12.78° C | 37% | 1011.4 hPa | 0 mm | - | - | - |
| 1778177096 | 12.78° C | 34% | 1011.5 hPa | 0 mm | - | - | - |
| 1778177047 | 13.33° C | 36% | 1011.4 hPa | 0 mm | - | - | - |
| 1778177021 | 13.33° C | 34% | 1011.5 hPa | 0 mm | - | - | - |
| 1778176731 | 13.33° C | 34% | 1011.5 hPa | 0 mm | - | - | - |
| 1778176617 | 13.33° C | 35% | 1011.4 hPa | 0 mm | - | - | - |
| 1778176494 | 13.33° C | 37% | 1011.5 hPa | 0 mm | - | - | - |
| 1778176423 | 13.33° C | 37% | 1011.4 hPa | 0 mm | - | - | - |
| 1778176387 | 12.78° C | 36% | 1011.4 hPa | 0 mm | - | - | - |
| 1778176133 | 12.78° C | 35% | 1011.4 hPa | 0 mm | - | - | - |
| 1778176013 | 12.78° C | 37% | 1011.5 hPa | 0 mm | - | - | - |
| 1778175962 | 12.22° C | 35% | 1011.5 hPa | 0 mm | - | - | - |
| 1778175774 | 12.22° C | 41% | 1011.5 hPa | 0 mm | - | - | - |
| 1778175660 | 11.67° C | 35% | 1011.5 hPa | 0 mm | - | - | - |
| 1778175533 | 11.67° C | 42% | 1011.5 hPa | 0 mm | - | - | - |
| 1778175414 | 11.67° C | 38% | 1011.6 hPa | 0 mm | - | - | - |
| 1778175294 | 12.78° C | 37% | 1011.6 hPa | 0 mm | - | - | - |
| 1778175173 | 12.78° C | 39% | 1011.6 hPa | 0 mm | - | - | - |
| 1778175061 | 12.78° C | 40% | 1011.6 hPa | 0 mm | - | - | - |
| 1778174995 | 12.22° C | 35% | 1011.6 hPa | 0 mm | - | - | - |
| 1778174813 | 12.78° C | 34% | 1011.6 hPa | 0 mm | - | - | - |
| 1778174693 | 12.78° C | 41% | 1011.6 hPa | 0 mm | - | - | - |
| 1778174574 | 12.22° C | 36% | 1011.8 hPa | 0 mm | - | - | - |
* Rain latest hour (hover to see other rain measurements)
** Current wind speed in m/s (hover to see current wind gust speed)